Regional Weather Roundup
Issued by NWS Green Bay, WI

Home | Current Version | Previous Version | Text Only | Print | Product List | Glossary On
Versions: 1 2 3 4 5 6 7 8 9 10 11 12 13 14 15 16 17 18 19 20 21 22 23 24 25 26 27 28 29 30 31 32 33 34 35 36 37 38 39 40 41 42 43 44 45 46 47 48 49 50
000
ASUS43 KGRB 040500
RWRGRB

NORTH-CENTRAL AND NORTHEAST WISCONSIN REGIONAL WEATHER ROUNDUP
NATIONAL WEATHER SERVICE GREEN BAY WI
1200 AM CDT SAT JUL 04 2015

WIZ005-009-010>012-018-019-040600-
NORTH CENTRAL WISCONSIN

CITY           SKY/WX    TMP DP  RH WIND       PRES   REMARKS
IRONWOOD       CLEAR     59  59 100 CALM      29.89S
MANITOWISH WTR NOT AVBL
ARBOR VITAE    NOT AVBL
EAGLE RIVER    NOT AVBL
LAND O LAKES   NOT AVBL
RHINELANDER    MOCLDY    59  57  93 W7        29.95R
PHILLIPS       NOT AVBL
ANTIGO         NOT AVBL
TOMAHAWK       NOT AVBL
MERRILL        NOT AVBL
$$

WIZ013-073-040600-
NORTHEAST WISCONSIN

CITY           SKY/WX    TMP DP  RH WIND       PRES   REMARKS
IRON MOUNTAIN  CLEAR     58  55  90 N5        29.89S
MARINETTE      CLEAR     64  54  68 W3        29.88S
$$

WIZ017-030-035>037-045-040600-
CENTRAL WISCONSIN

CITY           SKY/WX    TMP DP  RH WIND       PRES   REMARKS
MEDFORD        NOT AVBL
WAUSAU         CLOUDY    67  57  70 CALM      29.91S
MOSINEE        NOT AVBL
MARSHFIELD     PTCLDY    61  55  81 SW3       29.93F
WISC RAPIDS    PTCLDY    60  56  86 CALM      29.94S
STEVENS POINT  NOT AVBL
WAUPACA        NOT AVBL
SHAWANO        NOT AVBL
CLINTONVILLE   NOT AVBL
$$

WIZ038-039-048-051-040600-
FOX VALLEY

CITY           SKY/WX    TMP DP  RH WIND       PRES   REMARKS
NWS GREEN BAY  PTCLDY    64  58  80 S3        29.91S
APPLETON       NOT AVBL
OSHKOSH        CLEAR     65  56  72 SW5       29.92R
FOND DU LAC    CLEAR     64  56  75 SW7       29.93R
$$

WIZ022-050-052-040600-
EAST CENTRAL WISCONSIN

CITY           SKY/WX    TMP DP  RH WIND       PRES   REMARKS
STURGEON BAY   CLEAR     63  52  67 S7        29.92S
MANITOWOC      NOT AVBL
SHEBOYGAN      CLEAR     58  53  84 SW5       29.93S
$$

LMZ563-521-522-541>543-040600-
LAKESHORE

STATION/POSITION TIME  TEMP    WIND        PRES    VSBY  WAVE
                       AIR SEA DIR/SP/G                  HT/PER
                 (UTC) (F)     (DEG/KT/KT) (MB)    (MI)  (FT/S)
SHEBOYGAN LKSHOR 0400   63     210/  8/  9 1013.6R
KEWAUNEE LKSHORE 0400   65     270/  2/  5 1012.1S
NORTHPORT PIER   0400   63     190/  3/  9 1011.9S
N MID LAKE BUOY  0350   49 43  190/  8/  8 1012.2R         2/ 4
SISTER BAY LKSHO 0414   66     200/  9/ 10   N/A
CHAMBERS ISLAND  0400   66     180/  5/  8 1012.2R
MENOMINEE LKSHOR 0400   68     200/  6/  8 1012.6R
$$


USA.gov is the U.S. government's official web portal to all federal, state and local government web resources and services.